DLH4PW EDDG-EDDM

Flight info

Callsign DLH4PW
Flight time N/A
Altitude 31000
Route DOMEG1W DOMEG Z841 GMH Q603 TESGA L603 BOMBI T104 HAREM/N0429F270 T104 ROKIL ROKIL1B
Aircraft A319/M-SDE3FGHIRWY/LB1

Departure

Time 2026-04-23 11:41
Airport Münster Osnabrück Airport (EDDG)

Arrival

Time N/A
Airport Munich Airport (EDDM)
Time Latitude Longitude Altitude Speed Heading
2026-04-23 11:29 52.13164 7.69369 164 ft 0 kts 196°
2026-04-23 11:38 52.13162 7.69354 165 ft 3 kts 284°
2026-04-23 11:38 52.13184 7.69325 165 ft 5 kts 338°
2026-04-23 11:38 52.13222 7.69317 165 ft 6 kts 358°
2026-04-23 11:39 52.13281 7.69307 165 ft 10 kts 343°
2026-04-23 11:39 52.13368 7.69257 165 ft 15 kts 342°
2026-04-23 11:39 52.13465 7.69314 165 ft 19 kts 71°
2026-04-23 11:39 52.13514 7.69544 165 ft 23 kts 71°
2026-04-23 11:40 52.13572 7.69814 165 ft 26 kts 71°
2026-04-23 11:40 52.13676 7.70032 165 ft 25 kts
2026-04-23 11:40 52.13758 7.69870 165 ft 22 kts 252°
2026-04-23 11:40 52.13671 7.69454 165 ft 73 kts 250°
2026-04-23 11:41 52.13424 7.68289 165 ft 142 kts 251°
2026-04-23 11:41 52.13070 7.66622 627 ft 160 kts 253°
2026-04-23 11:41 52.12713 7.64943 1383 ft 161 kts 255°
2026-04-23 11:41 52.12352 7.63258 2132 ft 164 kts 256°
2026-04-23 11:42 52.11969 7.61435 2666 ft 179 kts 257°
2026-04-23 11:42 52.11551 7.59430 3190 ft 196 kts 257°
2026-04-23 11:42 52.11092 7.57231 3665 ft 218 kts 256°
2026-04-23 11:42 52.10555 7.54849 4216 ft 239 kts 248°
2026-04-23 11:43 52.09387 7.52739 4767 ft 269 kts 213°
2026-04-23 11:43 52.07566 7.51884 5413 ft 286 kts 185°
2026-04-23 11:43 52.05566 7.51663 6311 ft 292 kts 185°
2026-04-23 11:43 52.03532 7.51405 7229 ft 296 kts 186°
2026-04-23 11:44 52.01490 7.51130 8144 ft 300 kts 183°
2026-04-23 11:44 51.99428 7.51192 9051 ft 303 kts 175°
2026-04-23 11:44 51.97337 7.51651 9950 ft 306 kts 171°
2026-04-23 11:44 51.95226 7.52222 10815 ft 310 kts 170°
2026-04-23 11:45 51.93066 7.52822 11379 ft 326 kts 170°
2026-04-23 11:45 51.90780 7.53450 11813 ft 344 kts 170°
2026-04-23 11:45 51.88369 7.54100 12312 ft 358 kts 170°
2026-04-23 11:45 51.85920 7.54752 13050 ft 363 kts 170°
2026-04-23 11:46 51.83409 7.55414 13867 ft 366 kts 170°
2026-04-23 11:46 51.80925 7.56068 14654 ft 368 kts 170°
2026-04-23 11:46 51.78380 7.56735 15401 ft 371 kts 170°
2026-04-23 11:46 51.75840 7.57401 16101 ft 375 kts 170°
2026-04-23 11:47 51.73273 7.58097 16813 ft 378 kts 168°
2026-04-23 11:47 51.70705 7.59021 17520 ft 380 kts 164°
2026-04-23 11:47 51.68159 7.60243 18171 ft 383 kts 160°
2026-04-23 11:47 51.65669 7.61658 18809 ft 386 kts 159°
2026-04-23 11:48 51.63127 7.63119 19468 ft 389 kts 159°
2026-04-23 11:48 51.60590 7.64574 20111 ft 391 kts 159°
2026-04-23 11:48 51.58055 7.66025 20731 ft 393 kts 158°
2026-04-23 11:48 51.55481 7.67494 21345 ft 395 kts 158°
2026-04-23 11:49 51.52898 7.68964 21955 ft 397 kts 158°
2026-04-23 11:49 51.50288 7.70446 22545 ft 399 kts 158°
2026-04-23 11:49 51.47693 7.71920 23083 ft 402 kts 158°
2026-04-23 11:49 51.45054 7.73416 23621 ft 404 kts 158°
2026-04-23 11:50 51.42396 7.74920 24161 ft 406 kts 158°
2026-04-23 11:50 51.39733 7.76423 24680 ft 409 kts 158°
2026-04-23 11:50 51.37045 7.77940 25186 ft 411 kts 158°
2026-04-23 11:50 51.34348 7.79458 25689 ft 413 kts 158°
2026-04-23 11:51 51.31654 7.80973 26171 ft 415 kts 157°
2026-04-23 11:51 51.28937 7.82503 26658 ft 417 kts 157°
2026-04-23 11:51 51.26197 7.84044 27111 ft 420 kts 157°
2026-04-23 11:51 51.23430 7.85598 27559 ft 422 kts 157°
2026-04-23 11:52 51.20701 7.87145 28051 ft 422 kts 155°
2026-04-23 11:52 51.18018 7.88922 28677 ft 417 kts 152°
2026-04-23 11:52 51.15447 7.90961 29284 ft 413 kts 147°
2026-04-23 11:52 51.12990 7.93265 29831 ft 410 kts 143°
2026-04-23 11:53 51.10584 7.95719 30284 ft 410 kts 143°
2026-04-23 11:53 51.08191 7.98172 30682 ft 412 kts 143°
2026-04-23 11:53 51.05784 8.00632 31067 ft 413 kts 143°
2026-04-23 11:53 51.03386 8.03075 31320 ft 415 kts 143°
2026-04-23 11:54 51.00957 8.05540 31331 ft 416 kts 143°
2026-04-23 11:54 50.96094 8.10446 31331 ft 416 kts 143°
2026-04-23 11:55 50.91220 8.15353 31339 ft 415 kts 143°
2026-04-23 11:55 50.86329 8.20268 31342 ft 415 kts 143°
2026-04-23 11:56 50.81493 8.25117 31347 ft 416 kts 143°
2026-04-23 11:56 50.76619 8.29994 31343 ft 416 kts 143°
2026-04-23 11:57 50.71726 8.34883 31337 ft 416 kts 143°
2026-04-23 11:57 50.66774 8.39799 31327 ft 433 kts 143°
2026-04-23 11:58 50.61615 8.44909 31323 ft 443 kts 143°
2026-04-23 11:58 50.56420 8.50038 31324 ft 443 kts 143°
2026-04-23 11:59 50.51210 8.55177 31321 ft 443 kts 143°
2026-04-23 11:59 50.45970 8.60337 31320 ft 444 kts 143°
2026-04-23 12:00 50.40763 8.65452 31321 ft 445 kts 143°
2026-04-23 12:00 50.35519 8.70589 31318 ft 445 kts 143°
2026-04-23 12:01 50.30286 8.75703 31318 ft 445 kts 143°
2026-04-23 12:01 50.25049 8.80808 31319 ft 444 kts 143°
2026-04-23 12:02 50.19838 8.85875 31319 ft 445 kts 143°
2026-04-23 12:02 50.14575 8.90981 31321 ft 446 kts 144°
2026-04-23 12:03 50.09323 8.96059 31327 ft 447 kts 143°
2026-04-23 12:03 50.04036 9.01159 31334 ft 447 kts 143°
2026-04-23 12:04 49.98795 9.06201 31338 ft 447 kts 143°
2026-04-23 12:04 49.93525 9.11258 31337 ft 447 kts 143°
2026-04-23 12:05 49.88215 9.16342 31332 ft 447 kts 143°
2026-04-23 12:05 49.82956 9.21365 31332 ft 448 kts 143°
2026-04-23 12:06 49.77654 9.26415 31330 ft 448 kts 143°
2026-04-23 12:06 49.69709 9.33958 31324 ft 448 kts 143°
2026-04-23 12:07 49.64562 9.39269 31317 ft 445 kts 138°
2026-04-23 12:07 49.59859 9.45370 31312 ft 441 kts 131°
2026-04-23 12:08 49.55674 9.52147 31310 ft 438 kts 126°
2026-04-23 12:08 49.51662 9.59204 31310 ft 439 kts 126°
2026-04-23 12:09 49.47657 9.66218 31311 ft 438 kts 127°
2026-04-23 12:09 49.43631 9.73249 31310 ft 438 kts 127°
2026-04-23 12:10 49.39605 9.80259 31313 ft 439 kts 127°
2026-04-23 12:10 49.35560 9.87264 31312 ft 440 kts 127°
2026-04-23 12:11 49.31511 9.94236 31314 ft 441 kts 127°
2026-04-23 12:11 49.27436 10.01247 31315 ft 441 kts 127°
2026-04-23 12:12 49.23373 10.08219 31316 ft 441 kts 127°
2026-04-23 12:12 49.19295 10.15201 31315 ft 441 kts 127°
2026-04-23 12:13 49.15213 10.22177 31311 ft 441 kts 126°
2026-04-23 12:13 49.11050 10.29050 31303 ft 444 kts 128°
2026-04-23 12:14 49.06821 10.35801 31298 ft 443 kts 128°